Stations météo

réclame
Mon MeteoGroup
Lyon/Satolas, France (7481): Température de l'air & dewpoint: 17.09.2019 07:00:00 - 23.09.2019 07:00:00 (CEST)Lyon/Satolas, France (7481): Température de l'air 5cm: 17.09.2019 07:00:00 - 23.09.2019 07:00:00 (CEST)Lyon/Satolas, France (7481): Température de l'air -20cm & Température de l'air -100cm: 17.09.2019 07:00:00 - 23.09.2019 07:00:00 (CEST)Lyon/Satolas, France (7481): Vitesse du vent & gusts: 17.09.2019 07:00:00 - 23.09.2019 07:00:00 (CEST)Lyon/Satolas, France (7481): Direction du vent: 17.09.2019 07:00:00 - 23.09.2019 07:00:00 (CEST)Lyon/Satolas, France (7481): reduced air pressure: 17.09.2019 07:00:00 - 23.09.2019 07:00:00 (CEST)Lyon/Satolas, France (7481): visibility: 17.09.2019 07:00:00 - 23.09.2019 07:00:00 (CEST)Lyon/Satolas, France (7481): Quantités de précipitations: 17.09.2019 07:00:00 - 23.09.2019 07:00:00 (CEST)
Date & Time tt [°C] td [°C] tt 5cm [°C] tt -20cm [°C] tt -100cm [°C] ff [km/h] ff [knt] fx [km/h] fx [knt] dd ppp [hPa] vv [km] rr [mm]
23.09.2019 07:00:00 13,6 13,3 11,4 20,3 21,7 8 4 10 6 SE 1018,3 0,1 0,0
23.09.2019 06:00:00 13,8 13,3 11,8 20,6 21,7 0 0 3 1 N 1018,0 20 0,2
23.09.2019 05:00:00 14,3 13,5 13,1 20,8 21,7 0 0 3 2 N 1017,7 40 0,0
23.09.2019 04:00:00 14,7 13,6 14,5 21,0 21,7 2 1 4 2 SW 1017,5 40 0,0
23.09.2019 03:00:00 15,0 13,4 14,6 21,3 21,7 4 2 14 8 S 1017,5 40 0,0
23.09.2019 02:00:00 15,2 13,6 15,0 21,6 21,7 8 4 13 7 SSE 1017,6 40 0,0
23.09.2019 01:00:00 15,1 14,1 14,5 21,9 21,7 9 5 13 7 S 1017,4 40 0,0
23.09.2019 00:00:00 14,7 14,1 14,5 22,3 21,7 10 5 17 9 ESE 1017,0 15 0,6
22.09.2019 23:00:00 14,9 14,3 14,6 22,9 21,7 7 4 22 12 ESE 1016,8 8 5,8
22.09.2019 22:00:00 15,1 14,5 14,5 23,4 21,7 3 2 19 10 S 1016,1 2,4 4,2
22.09.2019 21:00:00 15,0 14,2 14,7 23,9 21,7 15 8 23 12 N 1014,6 4,7 4,4
22.09.2019 20:00:00 15,7 14,6 15,2 24,2 21,7 19 10 32 17 W 1013,9 1,4 11,1
22.09.2019 19:00:00 18,5 14,2 16,3 24,3 21,7 29 16 62 33 NW 1011,7 20 0,0
22.09.2019 18:00:00 23,9 15,1 24,2 24,2 21,7 23 12 51 28 S 1009,4 30 0,0
22.09.2019 17:00:00 24,8 14,9 26,0 23,9 21,7 34 18 53 29 SSW 1009,0 40 0,0
22.09.2019 16:00:00 26,1 14,5 28,5 23,6 21,7 31 17 49 26 SSW 1008,8 40 0,0
22.09.2019 15:00:00 25,4 14,8 28,1 23,2 21,7 31 17 50 27 SSW 1009,0 40 0,0
22.09.2019 14:00:00 25,9 14,0 29,0 22,8 21,6 32 18 53 29 SSW 1009,1 40 0,0
22.09.2019 13:00:00 25,7 14,2 27,5 22,4 21,7 32 17 52 28 SSW 1009,7 40 0,0
22.09.2019 12:00:00 24,4 14,8 27,7 22,2 21,7 29 15 44 24 S 1010,2 40 0,0
22.09.2019 11:00:00 22,9 14,5 26,7 22,1 21,7 22 12 46 25 S 1011,0 40 0,0
22.09.2019 10:00:00 20,7 14,3 18,7 22,1 21,7 11 6 23 13 SSE 1011,6 40 0,0
22.09.2019 09:00:00 18,3 14,0 17,8 22,3 21,7 11 6 25 13 SE 1011,6 40 0,0
22.09.2019 08:00:00 18,6 14,1 17,3 22,4 21,7 13 7 21 12 SSE 1011,6 40 0,0
22.09.2019 07:00:00 18,4 13,9 17,8 22,6 21,7 16 9 23 12 SE 1011,5 40 0,0
22.09.2019 06:00:00 19,2 13,8 18,4 22,7 21,6 16 9 23 13 SE 1011,6 40 0,0
22.09.2019 05:00:00 19,4 13,8 18,9 22,9 21,7 12 6 23 12 SE 1011,7 40 0,0
22.09.2019 04:00:00 19,7 13,8 19,3 23,0 21,7 10 5 22 12 SSE 1011,8 40 0,0
22.09.2019 03:00:00 19,7 14,1 19,4 23,1 21,6 10 6 23 12 SE 1012,4 40 0,0
22.09.2019 02:00:00 19,8 14,2 19,2 23,3 21,7 12 7 22 12 SE 1012,3 40 0,0
22.09.2019 01:00:00 19,5 14,1 19,1 23,5 21,6 10 5 18 10 SE 1012,1 40 0,0
22.09.2019 00:00:00 19,8 14,2 19,0 23,6 21,6 9 5 17 9 SSE 1012,5 40 0,0
21.09.2019 23:00:00 20,4 14,1 19,8 23,9 21,7 12 6 18 10 SE 1012,5 40 0,0
21.09.2019 22:00:00 20,8 14,0 20,2 24,0 21,7 10 5 21 12 SSE 1012,7 40 0,0
21.09.2019 21:00:00 21,9 13,8 21,6 24,1 21,7 13 7 20 11 SE 1013,1 40 0,0
21.09.2019 20:00:00 22,4 13,5 22,2 24,2 21,7 11 6 29 16 S 1013,4 40 0,0
21.09.2019 19:00:00 23,7 12,3 23,7 24,2 21,7 21 11 44 24 S 1013,2 60 0,0
21.09.2019 18:00:00 24,7 11,6 25,2 24,0 21,7 18 10 38 21 SSW 1012,7 50 0,0
21.09.2019 17:00:00 26,2 11,1 27,9 23,7 21,7 26 14 48 26 S 1012,9 50 0,0
21.09.2019 16:00:00 27,9 11,0 30,1 23,3 21,7 27 15 42 23 S 1012,8 50 0,0
21.09.2019 15:00:00 26,1 11,1 28,3 22,8 21,7 23 12 49 26 S 1014,2 50 0,0
21.09.2019 14:00:00 25,8 11,5 29,2 22,3 21,7 28 15 54 29 S 1015,2 14 0,0
21.09.2019 13:00:00 25,5 11,3 28,4 21,9 21,7 35 19 55 30 S 1016,0 50 0,0
21.09.2019 12:00:00 24,4 11,0 27,6 21,6 21,7 16 9 36 20 S 1016,5 50 0,0
21.09.2019 11:00:00 22,4 11,5 24,3 21,4 21,7 18 10 32 17 SE 1017,2 50 0,0
21.09.2019 10:00:00 20,4 11,3 21,6 21,5 21,7 18 10 29 16 SE 1017,8 40 0,0
21.09.2019 09:00:00 18,4 11,9 15,9 21,7 21,7 19 10 28 15 SE 1017,8 35 0,0
21.09.2019 08:00:00 16,0 11,8 14,7 21,9 21,7 16 9 22 12 SE 1018,2 40 0,0
21.09.2019 07:00:00 16,2 12,0 15,3 22,1 21,7 15 8 21 11 ESE 1018,2 40 0,0
21.09.2019 06:00:00 16,6 11,9 15,7 22,3 21,7 16 9 22 12 SE 1018,5 40 0,0
21.09.2019 05:00:00 17,2 12,3 16,2 22,5 21,7 15 8 23 12 SE 1018,5 50 0,0
21.09.2019 04:00:00 18,1 12,5 17,3 22,7 21,7 15 8 23 12 SE 1018,4 50 0,0
21.09.2019 03:00:00 18,7 12,7 17,4 22,9 21,7 18 10 23 13 SE 1018,6 50 0,0
21.09.2019 02:00:00 18,6 12,1 17,5 23,1 21,7 16 9 23 13 SE 1018,6 50 0,0
21.09.2019 01:00:00 19,1 11,9 18,0 23,4 21,7 16 9 27 14 SE 1018,3 50 0,0
21.09.2019 00:00:00 19,8 11,8 18,8 23,6 21,7 17 9 29 15 SSE 1018,5 50 0,0
20.09.2019 23:00:00 20,9 12,3 18,6 23,8 21,8 14 8 23 13 SE 1018,2 40 0,0
20.09.2019 22:00:00 21,5 12,3 20,0 24,0 21,8 18 10 24 13 SE 1018,1 40 0,0
20.09.2019 21:00:00 22,3 12,5 21,3 24,2 21,8 14 8 21 12 SE 1017,9 40 0,0
20.09.2019 20:00:00 24,3 12,9 23,0 24,2 21,8 9 5 19 10 ESE 1017,3 40 0,0
20.09.2019 19:00:00 26,6 11,9 27,6 24,0 21,8 13 7 21 12 SE 1017,1 40 0,0
20.09.2019 18:00:00 27,3 11,7 29,2 23,7 21,8 13 7 27 15 S 1017,3 40 0,0
20.09.2019 17:00:00 27,7 11,7 32,0 23,2 21,8 14 8 35 19 S 1017,6 40 0,0
20.09.2019 16:00:00 27,3 12,1 31,4 22,6 21,8 22 12 37 20 SSW 1018,3 40 0,0
20.09.2019 15:00:00 26,4 12,1 31,0 21,8 21,8 16 8 35 19 SSW 1019,2 40 0,0
20.09.2019 14:00:00 24,4 10,7 28,7 21,1 21,8 10 5 26 14 SE 1020,2 40 0,0
20.09.2019 13:00:00 21,5 8,7 23,9 20,5 21,8 10 5 18 10 ENE 1021,3 40 0,0
20.09.2019 12:00:00 19,1 7,8 23,6 20,1 21,8 4 2 26 14 E 1022,2 40 0,0
20.09.2019 11:00:00 15,5 6,2 20,9 19,9 21,8 6 3 21 11 ENE 1023,2 50 0,0
20.09.2019 10:00:00 13,0 5,4 17,1 20,0 21,8 5 3 11 6 NNW 1023,5 50 0,0
20.09.2019 09:00:00 10,9 4,8 9,7 20,2 21,8 3 2 10 5 NNW 1023,4 50 0,0
20.09.2019 08:00:00 9,6 4,8 6,4 20,5 21,8 6 3 8 4 N 1023,0 50 0,0
20.09.2019 07:00:00 9,7 4,5 6,5 20,7 21,9 3 2 9 5 E 1022,9 50 0,0
20.09.2019 06:00:00 10,2 4,8 5,8 21,0 21,9 5 3 8 5 NNE 1022,8 50 0,0
20.09.2019 05:00:00 9,9 4,9 6,2 21,4 21,9 5 3 8 4 N 1023,1 50 0,0
20.09.2019 04:00:00 11,2 5,1 7,2 21,6 21,9 5 3 8 4 SW 1023,1 50 0,0
20.09.2019 03:00:00 11,6 5,2 8,6 22,0 21,9 2 1 12 7 NW 1023,3 50 0,0
20.09.2019 02:00:00 12,5 5,2 10,1 22,3 21,9 4 2 13 7 NW 1023,2 50 0,0
20.09.2019 01:00:00 13,1 5,0 11,4 22,6 21,9 8 5 23 12 W 1022,9 50 0,0
20.09.2019 00:00:00 13,7 4,6 11,5 23,0 21,9 6 3 24 13 W 1022,6 50 0,0
19.09.2019 23:00:00 14,9 4,6 12,7 23,3 21,9 8 4 20 11 W 1022,1 50 0,0
19.09.2019 22:00:00 15,9 4,9 13,3 23,6 21,9 11 6 18 10 NNW 1021,7 50 0,0
19.09.2019 21:00:00 17,3 4,3 15,6 23,9 21,9 10 5 20 11 N 1020,9 50 0,0
19.09.2019 20:00:00 19,0 4,3 17,4 24,0 21,9 13 7 27 15 NNW 1020,4 50 0,0
19.09.2019 19:00:00 21,1 4,2 23,1 24,0 21,9 19 10 35 19 N 1019,8 50 0,0
19.09.2019 18:00:00 21,9 6,1 24,1 23,8 21,9 23 12 37 20 N 1019,6 50 0,0
19.09.2019 17:00:00 22,0 7,4 27,4 23,4 21,9 17 9 35 19 N 1019,6 50 0,0
19.09.2019 16:00:00 21,7 8,2 27,0 22,9 21,9 19 11 35 19 N 1019,9 50 0,0
19.09.2019 15:00:00 20,4 8,4 26,3 22,3 21,9 19 11 34 19 N 1020,6 40 0,0
19.09.2019 14:00:00 19,1 7,8 25,6 21,7 21,9 15 8 30 16 N 1021,0 40 0,0
19.09.2019 13:00:00 17,0 7,3 22,2 21,3 21,9 13 7 33 18 NNW 1021,7 40 0,0
19.09.2019 12:00:00 16,0 7,0 21,0 21,0 21,9 13 7 24 13 NNW 1021,9 40 0,0
19.09.2019 11:00:00 13,9 6,0 19,3 20,9 21,9 8 5 24 13 NNW 1022,1 40 0,0
19.09.2019 10:00:00 12,4 5,1 16,4 21,0 21,9 11 6 25 13 N 1022,0 60 0,0
19.09.2019 09:00:00 11,5 4,9 10,4 21,3 21,9 13 7 22 12 NW 1021,9 60 0,0
19.09.2019 08:00:00 10,4 5,0 9,0 21,5 21,9 13 7 19 10 NW 1021,6 60 0,0
19.09.2019 07:00:00 10,3 4,6 8,9 21,8 21,9 11 6 19 10 NNW 1021,3 50 0,0
19.09.2019 06:00:00 10,9 4,6 9,5 22,1 21,9 11 6 24 13 NNW 1021,0 50 0,0
19.09.2019 05:00:00 11,8 4,7 10,5 22,4 21,9 10 5 23 12 WNW 1021,0 51 0,0
19.09.2019 04:00:00 12,7 5,8 11,5 22,7 21,9 9 5 14 8 WNW 1020,9 50 0,0
19.09.2019 03:00:00 13,3 6,2 12,0 23,1 22,0 9 5 20 11 NW 1020,8 50 0,0
19.09.2019 02:00:00 13,9 5,5 12,8 23,3 21,9 11 6 22 12 NNW 1020,5 50 0,0
19.09.2019 01:00:00 15,2 5,4 13,6 23,6 21,9 9 5 22 12 NW 1020,3 50 0,0
19.09.2019 00:00:00 16,6 6,1 15,5 23,9 21,9 13 7 25 14 NNW 1020,2 40 0,0
18.09.2019 23:00:00 17,8 7,8 17,2 24,2 21,9 20 11 29 15 N 1019,6 40 0,0
18.09.2019 22:00:00 18,3 8,3 17,3 24,5 21,9 13 7 26 14 NNW 1019,1 40 0,0
18.09.2019 21:00:00 19,2 9,1 18,3 24,7 21,9 14 7 21 11 N 1018,6 40 0,0
18.09.2019 20:00:00 20,5 10,3 19,8 24,8 21,9 13 7 27 15 N 1018,0 40 0,0
18.09.2019 19:00:00 21,7 10,8 24,0 24,8 21,9 17 9 32 18 N 1017,6 40 0,0
18.09.2019 18:00:00 21,7 11,1 23,5 24,7 22,0 21 11 39 21 N 1017,6 40 0,0
18.09.2019 17:00:00 22,1 11,8 26,3 24,3 21,9 17 9 35 19 N 1017,6 40 0,0
18.09.2019 16:00:00 21,3 11,9 22,4 24,0 21,9 16 9 33 18 N 1018,1 40 0,0
18.09.2019 15:00:00 20,3 11,0 25,4 23,5 21,9 20 11 34 19 NNW 1018,5 50 0,0
18.09.2019 14:00:00 19,4 10,4 22,3 23,0 21,9 16 9 28 15 NNW 1018,7 50 0,0
18.09.2019 13:00:00 18,3 9,9 23,4 22,6 21,9 17 9 32 17 NNW 1018,9 50 0,0
18.09.2019 12:00:00 18,1 9,7 21,8 22,5 21,9 13 7 24 13 NW 1019,1 50 0,0
18.09.2019 11:00:00 15,7 9,1 18,2 22,5 21,9 10 5 22 12 N 1019,2 42 0,0
18.09.2019 10:00:00 14,8 8,7 16,2 22,6 21,9 10 6 21 12 N 1019,2 50 0,0
18.09.2019 09:00:00 14,7 8,9 14,4 22,8 21,9 11 6 22 12 NNW 1019,0 50 0,0
18.09.2019 08:00:00 14,1 9,7 13,3 23,0 21,9 10 5 18 10 NNW 1018,8 50 0,0
18.09.2019 07:00:00 14,6 10,0 13,9 23,3 21,9 13 7 22 12 NNW 1018,4 50 0,0
18.09.2019 06:00:00 14,8 10,4 14,1 23,5 21,9 14 8 22 12 NNW 1018,0 50 0,0
18.09.2019 05:00:00 15,3 10,3 14,4 23,8 21,8 14 7 20 11 NNW 1018,0 50 0,0
18.09.2019 04:00:00 16,0 10,5 15,2 24,1 21,8 16 8 23 12 N 1017,7 50 0,0
18.09.2019 03:00:00 16,6 11,1 15,5 24,4 21,8 13 7 19 10 NNW 1017,7 50 0,0
18.09.2019 02:00:00 17,5 11,5 16,7 24,7 21,8 12 6 25 13 NNW 1017,5 50 0,0
18.09.2019 01:00:00 18,1 12,3 17,4 25,0 21,8 11 6 25 14 NW 1017,0 50 0,0
18.09.2019 00:00:00 19,2 13,1 18,5 25,3 21,8 18 10 31 17 NNW 1016,9 50 0,0
17.09.2019 23:00:00 19,7 13,6 18,7 25,6 21,8 19 11 32 18 NNW 1016,7 50 0,0
17.09.2019 22:00:00 20,6 12,3 19,4 25,9 21,8 16 9 24 13 NNW 1016,5 60 0,0
17.09.2019 21:00:00 22,1 11,8 21,0 26,1 21,8 8 5 19 11 N 1015,9 70 0,0
17.09.2019 20:00:00 23,8 12,1 22,2 26,3 21,8 13 7 26 14 N 1015,4 80 0,0
17.09.2019 19:00:00 26,0 10,6 28,5 26,2 21,8 19 11 32 17 N 1015,3 80 0,0
17.09.2019 18:00:00 27,2 8,1 29,8 26,0 21,8 22 12 36 19 N 1015,3 70 0,0
17.09.2019 17:00:00 27,7 7,0 32,6 25,6 21,7 21 11 34 18 N 1015,6 70 0,0
17.09.2019 16:00:00 27,7 7,0 33,5 25,1 21,7 18 10 36 20 N 1016,1 70 0,0
17.09.2019 15:00:00 27,3 7,2 33,2 24,5 21,7 20 11 33 18 NNW 1016,6 60 0,0
17.09.2019 14:00:00 26,8 7,8 32,9 23,9 21,7 17 9 27 15 N 1017,0 60 0,0
17.09.2019 13:00:00 25,1 9,0 30,1 23,5 21,7 16 9 25 13 NNW 1017,7 60 0,0
17.09.2019 12:00:00 23,4 10,1 29,1 23,1 21,7 14 8 29 15 NNW 1018,5 60 0,0
17.09.2019 11:00:00 20,8 10,6 27,0 23,1 21,7 10 6 27 14 NW 1018,9 60 0,0
17.09.2019 10:00:00 18,9 9,9 23,7 23,1 21,7 8 5 17 9 N 1019,1 70 0,0
17.09.2019 09:00:00 17,7 8,8 16,7 23,3 21,7 10 5 16 9 N 1018,9 70 0,0
17.09.2019 08:00:00 16,4 8,6 13,9 23,6 21,7 8 4 12 6 N 1018,8 70 0,0
17.09.2019 07:00:00 16,8 8,2 12,6 23,9 21,7 6 4 16 9 N 1018,4 50 0,0

tt = Température de l'air
td = dewpoint
tt 5cm = Température de l'air 5cm
tt -20cm = Température de l'air -20cm
tt -100cm = Température de l'air -100cm
ff = Vitesse du vent
fx = gusts
dd = Direction du vent
ppp = reduced air pressure
vv = visibility
rr = Quantités de précipitations

stations d'obs. à proximité